Regional Weather Roundup
Issued by NWS

Home | Current Version | Previous Version | Graphics & Text | Print | Product List | Glossary On
Versions: 1 2 3 4 5 6 7 8 9 10 11 12 13 14 15 16 17 18 19 20 21 22 23 24 25 26 27 28 29 30 31 32 33 34 35 36 37 38 39 40 41 42 43 44 45 46 47 48 49 50
000
ASUS43 KMPX 011610
RWRMN
WEATHER ROUNDUP FOR MINNESOTA
NATIONAL WEATHER SERVICE TWIN CITIES/CHANHASSEN MN
1100 AM CDT MON SEP 01 2014


NOTE: "FAIR" INDICATES FEW OR NO CLOUDS BELOW 12,000 FEET WITH NO
SIGNIFICANT WEATHER AND/OR OBSTRUCTIONS TO VISIBILITY. N/A MEANS
CURRENT SKY AND/OR WEATHER CONDITIONS ARE NOT AVAILABLE.

MNZ060>063-068>070-011700-
   Twin Cities Metro

CITY           SKY/WX    TMP DP  RH WIND       PRES   REMARKS
TWIN CITIES    CLOUDY    70  63  78 NW8       29.70R
ST PAUL        PTSUNNY   71  61  70 NW8       29.70R
CRYSTAL        CLOUDY    70  62  76 NW7       29.69R
BLAINE         MOSUNNY   72  64  78 W9        29.70R
LAKEVILLE      MOSUNNY   70  63  78 NW10      29.71R
EDEN PRAIRIE   CLOUDY    70  63  78 W7        29.70S
SOUTH ST PAUL  MOSUNNY   71  63  75 W6        29.70R
LAKE ELMO      CLOUDY    70  63  78 NW7       29.71R
$$
MNZ001>005-007-008-013>017-022>024-027-028-011700-
   Northwest Minnesota

CITY           SKY/WX    TMP DP  RH WIND       PRES   REMARKS
BEMIDJI        MOSUNNY   64  53  67 NW15      29.71R
HALLOCK        SUNNY     64  55  72 CALM      29.69R
ROSEAU         SUNNY     64  57  77 NW8       29.68R
WARROAD        MOSUNNY   63  57  82 W9        29.67S
THIEF RVR FALL SUNNY     61  55  82 W8        29.71R
CROOKSTON      MOSUNNY   63  59  88 CALM      29.72R
FOSSTON        MOSUNNY   64  55  72 W8        29.73R
DETROIT LAKES  MOSUNNY   63  55  77 N7        29.75R
MOORHEAD       SUNNY     68  61  77 NW7       29.74R
PARK RAPIDS    MOSUNNY   66  51  58 NW15      29.72R
MAHNOMEN       FAIR      60  56  85 NW3       29.73R
$$
MNZ006-009>011-018-025>026-011700-
   North Central Minnesota

CITY           SKY/WX    TMP DP  RH WIND       PRES   REMARKS
BAUDETTE       MOSUNNY   63  55  75 NW10G20   29.64S
FLAG ISLAND    PTSUNNY   61  55  82 NW14      29.64R
INTL FALLS     LGT RAIN  61  59  93 NW10      29.63R FOG
WASKISH        PTSUNNY   63  55  77 W10G16    29.68R
BIG FORK       MOSUNNY   64  54  68 NW8       29.66R
LONGVILLE      MOSUNNY   64  55  72 NW7       29.69R
GRAND RAPIDS   CLOUDY    63  55  77 W10       29.67R
CRANE LAKE     PTSUNNY   63  57  82 NW7       29.62S
ORR            DRIZZLE   59  55  88 NW8       29.61S
COOK           PTSUNNY   63  57  82 W7        29.63S
WALKER         FAIR      64  53  68 W9        29.70R
$$
MNZ012-019>021-037-011700-
   Northeast Minnesota

CITY           SKY/WX    TMP DP  RH WIND       PRES   REMARKS
DULUTH         PTSUNNY   64  57  78 NW15G21   29.64S
ELY            LGT RAIN  61  57  88 W3        29.61R
HIBBING        CLOUDY    64  55  72 W8        29.65R
EVELETH        PTSUNNY   63  55  77 W9        29.65R
DULUTH HARBOR  PTSUNNY   66  61  82 W12       29.63S
TWO HARBORS    CLOUDY    63  55  77 W7        29.60S
SILVER BAY     PTSUNNY   63  61  94 NW6       29.58S
GRAND MARAIS     N/A     64  60  87 VRB6      29.54S
G MARAIS ARPRT CLOUDY    61  55  82 W3        29.58S
$$
MNZ029>031-032-039>041-046>048-054>057-064-011700-
   West Central Minnesota

CITY           SKY/WX    TMP DP  RH WIND       PRES   REMARKS
FERGUS FALLS   SUNNY     66  59  77 NW7       29.75R
WHEATON        SUNNY     66  57  72 W3        29.78R
MORRIS         SUNNY     70  59  68 NW6       29.76R
ALEXANDRIA     SUNNY     68  56  65 NW10      29.76R
ELBOW LAKE     FAIR      66  59  76 NW6       29.76R
WADENA         SUNNY     66  55  68 W7        29.73R
GLENWOOD       SUNNY     70  57  64 NW12      29.76R
APPLETON       SUNNY     72  57  60 N8        29.76R
BENSON         SUNNY     70  61  73 NW12      29.76R
ORTONVILLE     SUNNY     70  55  60 NW7       29.78R
MADISON        SUNNY     73  61  64 NW10      29.77R
WILLMAR        FAIR      70  57  64 NW14      29.76R
$$
MNZ033>034-036-042>043-049>051-058-059-011700-
   Central Minnesota

CITY           SKY/WX    TMP DP  RH WIND       PRES   REMARKS
ST CLOUD       PTSUNNY   72  60  66 NW14      29.71R
SAUK CENTRE    FAIR      68  54  60 NW14      29.74R
PAYNESVILLE    SUNNY     67  56  67 W13       29.74R
AITKIN         CLOUDY    68  59  73 W7        29.69R
PINE RIVER     MOSUNNY   64  55  72 W7        29.74R
BRAINERD       MOSUNNY   64  55  72 N13       29.72R
STAPLES        SUNNY     66  55  68 W10       29.72R
LONG PRAIRIE   FAIR      68  54  60 W13       29.74R
LITTLE FALLS   MOSUNNY   68  55  64 NW7       29.72R
LITCHFIELD     MOSUNNY   70  63  78 NW10      29.74R
BUFFALO        CLOUDY    69  61  74 W5        29.72R
MAPLE LAKE     CLOUDY    70  64  81 W7        29.73R
$$
MNZ037-044-045-052-053-011700-
   East Central Minnesota

CITY           SKY/WX    TMP DP  RH WIND       PRES   REMARKS
PRINCETON      PTSUNNY   68  63  83 W7        29.71R
MORA           MOSUNNY   66  57  72 NW12      29.71R
CAMBRIDGE      MOSUNNY   70  57  64 NW7       29.68R
RUSH CITY      CLOUDY    67  62  82 NW5       29.69R
MOOSE LAKE     PTSUNNY   64  55  72 CALM      29.66R
HINCKLEY       CLOUDY    66  59  77 NW6       29.69R
CLOQUET        PTSUNNY   64  57  77 NW13      29.66R
MCGREGOR       CLOUDY    63  57  82 NW8       29.70R
$$
MNZ071>073-080-081-089-090-097-098-011700-
   Southwest Minnesota

CITY           SKY/WX    TMP DP  RH WIND       PRES   REMARKS
MONTEVIDEO     SUNNY     72  70  94 N10       29.78R
GRANITE FALLS  SUNNY     69  60  71 W10       29.79R
CANBY          SUNNY     71  57  62 NW9       29.79R
MARSHALL       SUNNY     72  57  60 N10       29.78R
REDWOOD FALLS  SUNNY     70  59  68 NW8       29.76R
OLIVIA         SUNNY     70  57  64 NW14      29.75R
PIPESTONE      MOSUNNY   70  63  78 NW7       29.81R
WINDOM         SUNNY     70  63  78 W9        29.79R
WORTHINGTON    MOSUNNY   70  63  78 NW12      29.82R
JACKSON        MOSUNNY   70  61  73 NW7       29.80R
TRACY          SUNNY     71  62  73 NW7       29.79R
SLAYTON        MOSUNNY   70  61  73 CALM      29.81R
$$
MNZ065>067-074>077-082>085-091>093-011700-
   South Central Minnesota

CITY           SKY/WX    TMP DP  RH WIND       PRES   REMARKS
MANKATO        PTSUNNY   70  61  73 W7        29.75R
NEW ULM        MOSUNNY   68  64  88 NW9       29.75R
ST JAMES       MOSUNNY   70  63  78 W8        29.78R
FAIRMONT       CLOUDY    70  59  68 NW9       29.78R
GLENCOE        PTSUNNY   71  60  68 W8        29.73R
FARIBAULT      MOSUNNY   73  61  64 W7        29.73R
OWATONNA       MOSUNNY   70  63  78 W13       29.74R
WASECA         CLOUDY    66  59  77 W8        29.77R
ALBERT LEA     RAIN      70  64  83 W6        29.75R
$$
MNZ078>079-086>088-094>096-011700-
   Southeast Minnesota

CITY           SKY/WX    TMP DP  RH WIND       PRES   REMARKS
ROCHESTER      PTSUNNY   71  63  75 W7        29.73R
RED WING       LGT RAIN  70  64  83 NW6       29.68R
STANTON        PTSUNNY   73  63  71 W10       29.70R
DODGE CENTER   MOSUNNY   72  63  73 W10       29.73R
WINONA         PTSUNNY   72  64  78 W8        29.69R
AUSTIN         PTSUNNY   70  63  78 W7        29.74R
PRESTON        CLOUDY    70  68  92 W8        29.74R
$$
ABBREVIATIONS USED IN REMARKS
   TC - TEMPERATURES IN CELSIUS
  WCI - WIND CHILL INDEX
   HX - HEAT INDEX
  VSB - VISIBILITY
$$



USA.gov is the U.S. government's official web portal to all federal, state and local government web resources and services.